RH
35 38 35 37 40 45 50 51 53 56 64 70 69 69 72 73 71 56 56 63 56 60 58 55 62 66 66 68 69 69 71 64 62
39 40 38 38 40 43 50 51 54 58 64 67 65 62 70 74 73 70 62 70 68 58 69 58 67 65 66 66 68 71 77 67 69
37 41 41 40 43 42 45 47 51 54 57 62 62 59 63 64 67 71 68 69 72 70 65 73 72 70 69 68 68 71 75 68 70
26 42 43 44 47 45 45 47 48 56 56 69 69 63 66 65 63 64 68 66 69 70 68 73 72 73 72 71 71 71 75 75 71
35 40 45 44 47 49 48 51 49 51 56 60 65 62 71 68 65 65 62 68 66 70 72 71 74 73 74 73 70 71 74 72 65
45 44 52 48 48 53 54 52 55 51 55 59 56 69 73 68 66 67 66 67 68 69 72 73 71 74 79 82 76 75 74 75 74
44 52 53 54 54 52 55 59 63 62 59 58 63 68 72 77 68 69 70 70 74 72 75 76 75 74 74 76 76 80 80 76 78
50 55 55 55 56 60 63 64 63 64 59 64 64 68 65 72 73 82 83 87 79 78 77 75 75 76 76 77 71 61 65 69 71
47 52 56 58 58 59 62 63 67 66 68 69 70 71 68 74 84 82 87 85 83 88 81 82 83 81 78 78 70 87 90 84 67
51 53 58 63 61 59 60 61 63 67 68 70 76 78 76 82 88 83 85 85 87 89 92 88 88 86 87 89 89 94 92 90 87
52 54 58 65 63 65 67 63 59 62 69 79 85 82 82 85 86 94 94 92 91 90 88 84 80 77 76 73 65 85 85 84 79
47 51 58 62 62 68 79 75 72 72 74 80 88 94 93 90 86 88 89 87 85 79 82 71 70 69 73 74 71 88 87 87 72
48 54 65 63 60 68 77 89 86 92 94 92 94 95 93 89 85 84 82 78 78 78 72 71 59 67 70 78 74 84 88 85 67
51 55 58 58 62 69 80 90 90 96 97 98 98 96 94 88 82 85 83 80 77 76 75 76 74 73 72 74 74 74 88 90 84
57 59 58 61 76 92 89 86 81 86 91 95 97 98 96 90 87 72 72 80 80 80 76 78 78 77 65 59 69 81 83 92 94
60 56 55 59 86 96 90 86 81 85 91 96 97 97 97 96 86 82 77 78 78 65 73 66 69 75 80 72 68 74 86 94 95
60 59 59 69 89 95 97 90 84 88 89 90 94 96 96 93 82 79 74 61 60 59 61 64 69 79 76 77 78 82 88 94 94
62 67 67 71 80 90 96 92 86 80 83 88 88 87 79 75 68 69 72 68 64 66 75 73 71 68 73 82 93 96 98 99 97
66 75 78 80 88 93 96 91 84 80 73 73 73 71 67 62 60 60 60 63 67 97 92 96 98 100 88 70 94 95 98 100 100
81 76 79 82 91 92 90 88 82 77 71 68 69 60 64 60 59 56 61 58 56 57 69 87 92 92 92 95 99 95 98 98 99
Wind_Speed
11 17 19 21 22 20 20 21 20 19 18 17 18 17 16 13 14 10 10 11 8 7 6 6 5 7 8 9 9 8 7 6 7
10 14 18 20 20 20 19 19 20 21 19 18 18 19 15 15 13 14 11 12 10 9 8 6 6 8 8 8 9 9 8 7 8
9 12 16 17 18 20 19 19 20 19 19 19 19 17 15 14 15 14 13 11 12 11 10 8 7 8 8 8 9 8 9 8 9
8 13 15 17 17 18 19 17 17 18 18 15 15 17 16 15 14 15 14 13 13 12 11 10 9 9 8 9 9 9 9 10 9
7 11 14 15 16 17 18 19 19 19 17 18 17 15 15 15 13 13 14 14 13 12 11 11 10 10 10 10 10 9 10 10 10
6 6 11 12 14 16 17 18 17 18 18 17 16 15 15 15 15 14 13 13 12 11 11 12 12 11 11 10 11 11 11 10 10
5 5 10 12 12 14 15 14 15 14 16 15 16 17 14 12 15 13 10 9 10 11 11 13 13 13 13 12 11 9 8 9 10
4 6 8 11 12 12 13 13 13 13 15 15 16 17 15 14 11 11 11 10 10 11 12 12 12 10 10 10 9 8 10 10 11
7 9 9 9 9 11 12 14 14 14 15 15 15 15 15 10 10 12 11 7 10 8 11 10 8 8 8 8 7 6 6 10 10
9 9 10 11 10 11 10 12 13 15 13 14 14 13 13 13 13 13 11 10 8 8 8 5 4 3 3 5 4 11 10 10 9
11 11 10 9 9 8 8 9 10 9 11 12 11 11 11 13 13 10 8 9 9 7 4 4 3 2 3 4 2 8 8 11 10
8 8 8 9 7 7 7 6 6 9 10 11 13 14 14 13 13 13 10 9 7 6 4 5 4 4 5 5 4 3 6 9 9
5 6 8 8 9 8 9 9 10 11 8 6 4 8 10 11 11 11 9 9 7 5 7 6 4 3 3 3 7 5 7 9 7
5 5 8 8 9 10 11 13 15 15 12 12 10 10 6 6 14 11 10 10 7 6 6 5 3 3 5 6 7 9 7 9 9
4 9 10 10 11 10 11 13 16 15 16 14 10 12 7 5 11 8 8 10 8 7 4 5 6 8 7 6 8 7 10 14 15
6 11 12 11 11 10 11 13 14 16 14 13 17 13 8 6 7 8 7 8 8 5 5 6 7 7 7 8 9 9 13 14 17
7 11 13 12 12 12 10 12 13 11 11 11 19 14 9 7 9 9 7 6 4 5 5 6 6 6 8 9 10 11 10 9 10
8 11 12 13 13 14 12 13 16 16 14 12 14 14 11 10 8 9 8 6 6 6 5 4 5 6 6 9 9 10 14 12 10
7 10 10 12 13 16 15 15 17 17 17 16 16 14 12 10 9 9 8 8 7 2 1 6 7 8 5 7 6 15 16 15 15
6 12 13 13 14 14 17 17 17 16 16 15 14 14 14 10 10 9 9 8 7 7 5 7 4 5 7 8 8 14 15 15 14
Wind_Direction
239 206 204 199 195 193 190 191 190 192 191 198 196 200 205 207 212 220 221 219 224 230 238 226 222 213 215 217 220 220 224 233 243
221 209 203 197 193 190 187 187 193 194 192 198 199 201 200 203 208 217 218 215 216 226 230 233 224 212 213 225 230 227 223 241 243
232 209 202 196 192 191 191 192 193 196 197 199 198 202 205 204 203 211 221 221 219 220 227 223 217 222 231 235 244 239 230 238 243
267 218 200 195 192 194 192 194 194 195 197 193 192 201 203 206 203 207 215 221 223 220 225 223 229 228 225 228 227 224 225 237 253
279 238 205 194 191 189 190 193 193 196 200 193 194 196 200 208 207 208 215 222 222 222 223 225 227 226 224 230 236 240 240 245 254
291 236 204 191 186 190 191 195 196 197 197 200 194 189 196 202 207 204 216 224 227 227 230 230 226 227 229 228 232 235 241 249 255
256 209 199 193 193 197 198 192 190 194 199 197 191 191 203 199 204 206 206 228 231 229 230 236 232 230 234 237 236 229 242 251 255
187 203 203 199 194 191 191 191 191 193 194 193 194 194 200 201 192 192 189 207 224 232 231 237 236 238 239 242 240 242 252 251 250
223 213 204 199 198 188 189 191 190 191 192 190 187 191 204 184 183 199 219 189 219 221 233 236 234 232 238 242 258 302 257 259 265
235 218 203 190 194 193 187 191 193 197 192 186 189 188 182 174 175 200 208 209 202 204 200 198 206 223 267 278 304 37 14 344 290
229 220 200 191 183 171 175 193 201 195 185 178 166 176 184 171 169 161 165 162 164 148 138 110 93 67 8 324 323 39 333 312 279
263 227 194 188 180 162 144 154 162 174 181 177 163 161 180 161 159 148 163 141 117 101 125 93 61 35 0 342 336 50 323 312 292
257 208 179 160 141 138 124 110 115 104 96 105 124 152 155 138 138 132 130 110 105 120 89 77 58 10 344 336 339 356 302 312 313
316 189 158 137 138 129 124 122 114 101 93 79 68 52 29 116 113 116 108 103 100 89 88 90 69 21 11 357 337 323 321 290 307
240 172 150 150 128 127 125 132 120 122 116 123 96 85 53 6 79 96 104 103 91 78 91 69 42 21 4 355 343 342 319 300 283
212 181 157 151 135 127 125 129 136 138 145 151 121 101 108 221 115 108 115 116 106 117 87 58 43 25 352 342 338 329 319 303 303
196 180 160 147 137 130 121 126 133 136 140 146 113 127 162 173 151 126 113 107 122 90 74 61 41 16 355 342 337 334 330 321 312
203 180 165 160 150 140 133 137 138 138 140 137 129 143 157 157 136 134 134 113 93 95 79 48 50 14 345 345 336 336 320 308 312
207 184 169 158 150 136 135 144 146 146 155 154 149 149 157 157 149 150 136 122 125 262 258 207 232 258 269 345 313 328 330 323 324
197 184 174 160 146 142 144 150 149 155 160 164 164 156 154 157 154 145 138 139 139 127 166 227 257 7 8 0 313 351 346 349 339